Volver al catálogo

CZ-3C DEB

LostGTO
NORAD 40821·DEBRIS·🇨🇳 China

Lanzado Oct 31, 2010 desde Xichang Satellite Launch Center

Loading…

TLE

ObsoletoSource: Space-Track

Época: Mar 18, 2016, 03:15 UTC

1 40821U 10057AN  16078.13590260  .00000558  00000-0  99529-2 0  9990
2 40821  19.9042 316.8934 7165354 351.8520   1.0992  2.23129673642357

Sigue CZ-3C DEB en tiempo real con AllMySat

Download on the App Store